timestamp,surface_pressure_avg,surface_temp_avg,battery_voltage,lat,long
2020-06-04 00:09:01+00:00,324.2796,9.6,13.29,47.84626,-54.09684
2020-06-04 00:19:01+00:00,311.868,9.6,12.97,47.84626,-54.09684
2020-06-04 00:29:01+00:00,295.4581,9.4,12.97,47.84626,-54.09684
2020-06-04 00:39:01+00:00,291.853,9.43,12.97,47.84626,-54.09684
2020-06-04 00:49:01+00:00,287.308,9.4,12.97,47.84626,-54.09684
2020-06-04 00:59:01+00:00,275.9247,9.4,12.97,47.84626,-54.09684
2020-06-04 01:09:01+00:00,260.8347,9.4,12.97,47.84626,-54.09684
2020-06-04 01:19:01+00:00,254.203,9.36,12.73,47.84626,-54.09684
2020-06-04 01:29:01+00:00,244.1831,9.35,12.73,47.84626,-54.09684
2020-06-04 01:39:01+00:00,237.6248,9.3,12.73,47.84626,-54.09684
2020-06-04 01:49:01+00:00,235.5731,9.4,12.73,47.84626,-54.09684
2020-06-04 01:59:01+00:00,232.0447,9.4,12.73,47.84626,-54.09684
2020-06-04 02:09:01+00:00,224.5697,9.4,12.73,47.84626,-54.09684
2020-06-04 02:19:01+00:00,221.5498,9.82,12.73,47.84626,-54.09684
2020-06-04 02:29:01+00:00,217.5514,9.48,12.73,47.84626,-54.09684
2020-06-04 02:39:01+00:00,207.9898,9.3,12.73,47.84626,-54.09684
2020-06-04 02:49:01+00:00,204.3198,9.58,12.73,47.84626,-54.09684
2020-06-04 02:59:01+00:00,206.4864,9.72,12.73,47.84626,-54.09684
2020-06-04 03:09:01+00:00,205.8765,9.27,12.73,47.84626,-54.09684
2020-06-04 03:19:01+00:00,207.0448,9.2,12.73,47.84626,-54.09684
2020-06-04 03:29:01+00:00,212.4064,9.2,12.73,47.84626,-54.09684
2020-06-04 03:39:01+00:00,209.1631,9.08,12.73,47.84626,-54.09684
2020-06-04 03:49:01+00:00,205.6915,9.16,12.73,47.84626,-54.09684
2020-06-04 03:59:01+00:00,211.0965,9.2,12.73,47.84626,-54.09684
2020-06-04 04:09:01+00:00,213.8364,9.1,12.73,47.84626,-54.09684
2020-06-04 04:19:01+00:00,210.2348,9.1,12.73,47.84626,-54.09684
2020-06-04 04:29:01+00:00,208.3981,8.94,12.73,47.84626,-54.09684
2020-06-04 04:39:01+00:00,207.6631,8.95,12.73,47.84626,-54.09684
2020-06-04 04:49:01+00:00,203.9247,8.99,12.73,47.84626,-54.09684
2020-06-04 04:59:01+00:00,199.1465,8.8,12.73,47.84626,-54.09684
2020-06-04 05:09:01+00:00,197.6581,8.85,12.73,47.84626,-54.09684
2020-06-04 05:19:01+00:00,197.6965,9.0,12.73,47.84626,-54.09684
2020-06-04 05:29:01+00:00,200.8165,8.9,12.73,47.84626,-54.09684
2020-06-04 05:39:01+00:00,205.2714,9.0,12.73,47.84626,-54.09684
2020-06-04 05:49:01+00:00,211.0631,9.0,12.73,47.84626,-54.09684
2020-06-04 05:59:01+00:00,212.4131,8.9,12.73,47.84626,-54.09684
2020-06-04 06:09:01+00:00,207.6131,9.06,12.73,47.84626,-54.09684
2020-06-04 06:19:01+00:00,208.3715,8.9,12.73,47.84626,-54.09684
2020-06-04 06:29:01+00:00,212.1248,8.96,12.73,47.84626,-54.09684
2020-06-04 06:39:01+00:00,214.9231,9.0,12.73,47.84626,-54.09684
2020-06-04 06:49:01+00:00,217.4931,8.99,12.73,47.84626,-54.09684
2020-06-04 06:59:01+00:00,222.5714,8.9,12.73,47.84626,-54.09684
2020-06-04 07:09:01+00:00,225.1531,8.98,12.73,47.84626,-54.09684
2020-06-04 07:19:01+00:00,232.0064,9.0,12.73,47.84626,-54.09684
2020-06-04 07:29:01+00:00,244.4381,8.9,12.73,47.84626,-54.09684
2020-06-04 07:39:01+00:00,254.5714,8.91,12.73,47.84626,-54.09684
2020-06-04 07:49:01+00:00,259.5481,9.04,12.73,47.84626,-54.09684
2020-06-04 07:59:01+00:00,265.9814,9.25,12.73,47.84626,-54.09684
2020-06-04 08:09:01+00:00,277.1514,9.34,12.73,47.84626,-54.09684
2020-06-04 08:19:01+00:00,283.6364,9.1,12.73,47.84626,-54.09684
2020-06-04 08:29:01+00:00,286.4963,9.0,12.73,47.84626,-54.09684
2020-06-04 08:39:01+00:00,298.3264,9.1,12.73,47.84626,-54.09684
2020-06-04 08:49:01+00:00,310.8847,9.18,12.73,47.84626,-54.09684
2020-06-04 08:59:01+00:00,319.0264,9.2,12.73,47.84626,-54.09684
2020-06-04 09:09:01+00:00,326.3497,9.1,12.73,47.84626,-54.09684
2020-06-04 09:19:01+00:00,337.9497,9.1,12.73,47.84626,-54.09684
2020-06-04 09:29:01+00:00,343.7463,9.1,12.73,47.84626,-54.09684
2020-06-04 09:39:01+00:00,347.3947,9.0,12.73,47.84626,-54.09684
2020-06-04 09:49:01+00:00,350.1796,9.0,12.73,47.84626,-54.09684
2020-06-04 09:59:01+00:00,353.8447,9.0,12.73,47.84626,-54.09684
2020-06-04 10:09:01+00:00,356.0096,9.0,12.73,47.84626,-54.09684
2020-06-04 10:19:01+00:00,359.5411,9.01,12.73,47.84626,-54.09684
2020-06-04 10:29:01+00:00,361.0496,9.07,12.73,47.84626,-54.09684
2020-06-04 10:39:01+00:00,359.8646,9.04,12.73,47.84626,-54.09684
2020-06-04 10:49:01+00:00,358.608,9.06,12.73,47.84626,-54.09684
2020-06-04 10:59:01+00:00,358.0846,9.07,12.73,47.84626,-54.09684
2020-06-04 11:09:01+00:00,355.7795,9.0,12.73,47.84626,-54.09684
2020-06-04 11:19:01+00:00,351.6729,9.0,12.73,47.84626,-54.09684
2020-06-04 11:29:01+00:00,348.2531,9.0,12.73,47.84626,-54.09684
2020-06-04 11:39:01+00:00,341.7196,9.1,12.73,47.84626,-54.09684
2020-06-04 11:49:01+00:00,335.9196,9.1,12.73,47.84626,-54.09684
2020-06-04 11:59:01+00:00,332.6547,9.11,12.73,47.84626,-54.09684
2020-06-04 12:09:01+00:00,322.8729,9.18,12.73,47.84626,-54.09684
2020-06-04 12:19:01+00:00,313.3331,9.13,12.73,47.84626,-54.09684
2020-06-04 12:29:01+00:00,308.788,9.11,12.73,47.84626,-54.09684
2020-06-04 12:39:01+00:00,303.02299999999997,9.21,12.73,47.84626,-54.09684
2020-06-04 12:49:01+00:00,293.1047,9.3,12.73,47.84626,-54.09684
2020-06-04 12:59:01+00:00,280.9797,9.3,12.73,47.84626,-54.09684
2020-06-04 13:09:01+00:00,273.6597,9.3,12.73,47.84626,-54.09684
2020-06-04 13:19:01+00:00,263.153,9.31,12.73,47.84626,-54.09684
2020-06-04 13:29:01+00:00,251.1531,9.39,12.73,47.84626,-54.09684
2020-06-04 13:39:01+00:00,241.8765,9.37,12.73,47.84626,-54.09684
2020-06-04 13:49:01+00:00,234.1881,9.35,12.73,47.84626,-54.09684
2020-06-04 13:59:01+00:00,224.8281,9.39,12.73,47.84626,-54.09684
2020-06-04 14:09:01+00:00,216.4481,9.39,12.73,47.84626,-54.09684
2020-06-04 14:19:01+00:00,214.3498,9.3,12.81,47.84626,-54.09684
2020-06-04 14:29:01+00:00,208.5314,9.3,12.81,47.84626,-54.09684
2020-06-04 14:39:01+00:00,196.2531,9.3,12.81,47.84626,-54.09684
2020-06-04 14:49:01+00:00,188.6048,9.3,12.81,47.84626,-54.09684
2020-06-04 14:59:01+00:00,183.2814,9.3,12.81,47.84626,-54.09684
2020-06-04 15:09:01+00:00,175.5565,9.29,12.81,47.84626,-54.09684
2020-06-04 15:19:01+00:00,169.1765,9.3,12.81,47.84626,-54.09684
2020-06-04 15:29:01+00:00,171.3831,9.2,12.81,47.84626,-54.09684
2020-06-04 15:39:01+00:00,172.9815,9.28,12.81,47.84626,-54.09684
2020-06-04 15:49:01+00:00,165.3248,9.37,12.81,47.84626,-54.09684
2020-06-04 15:59:01+00:00,166.7948,9.49,12.81,47.84626,-54.09684
2020-06-04 16:09:01+00:00,170.6681,9.6,12.81,47.84626,-54.09684
2020-06-04 16:19:01+00:00,168.9382,9.78,12.73,47.84626,-54.09684
2020-06-04 16:29:01+00:00,170.1698,9.9,12.73,47.84626,-54.09684
2020-06-04 16:39:01+00:00,173.2115,9.98,12.73,47.84626,-54.09684
2020-06-04 16:49:01+00:00,172.6381,9.98,12.73,47.84626,-54.09684
2020-06-04 16:59:01+00:00,174.6281,9.97,12.73,47.84626,-54.09684
2020-06-04 17:09:01+00:00,177.9731,9.9,12.73,47.84626,-54.09684
2020-06-04 17:19:01+00:00,176.7815,9.9,12.73,47.84626,-54.09684
2020-06-04 17:29:01+00:00,173.9415,9.9,12.73,47.84626,-54.09684
2020-06-04 17:39:01+00:00,177.3131,9.9,12.73,47.84626,-54.09684
2020-06-04 17:49:01+00:00,182.9231,9.9,12.73,47.84626,-54.09684
2020-06-04 17:59:01+00:00,186.2948,9.9,12.73,47.84626,-54.09684
2020-06-04 18:09:01+00:00,188.8548,9.89,12.73,47.84626,-54.09684
2020-06-04 18:19:01+00:00,193.9298,9.89,12.81,47.84626,-54.09684
2020-06-04 18:29:01+00:00,202.5815,9.9,12.81,47.84626,-54.09684
2020-06-04 18:39:01+00:00,209.4481,9.7,12.81,47.84626,-54.09684
2020-06-04 18:49:01+00:00,216.9198,9.5,12.81,47.84626,-54.09684
2020-06-04 18:59:01+00:00,228.5531,9.5,12.81,47.84626,-54.09684
2020-06-04 19:09:01+00:00,238.2448,9.5,12.81,47.84626,-54.09684
2020-06-04 19:19:01+00:00,246.4648,9.4,12.97,47.84626,-54.09684
2020-06-04 19:29:01+00:00,255.6064,9.3,12.97,47.84626,-54.09684
2020-06-04 19:39:01+00:00,265.5197,9.28,12.97,47.84626,-54.09684
2020-06-04 19:49:01+00:00,271.7631,9.29,12.97,47.84626,-54.09684
2020-06-04 19:59:01+00:00,278.7647,9.24,12.97,47.84626,-54.09684
2020-06-04 20:09:01+00:00,285.6013,9.38,12.97,47.84626,-54.09684
2020-06-04 20:19:01+00:00,296.6664,9.4,12.97,47.84626,-54.09684
2020-06-04 20:29:01+00:00,306.2563,9.27,12.97,47.84626,-54.09684
2020-06-04 20:39:01+00:00,316.0847,9.0,12.97,47.84626,-54.09684
2020-06-04 20:49:01+00:00,322.4996,8.98,12.97,47.84626,-54.09684
2020-06-04 20:59:01+00:00,331.9946,8.98,12.97,47.84626,-54.09684
2020-06-04 21:09:01+00:00,338.0313,8.99,12.97,47.84626,-54.09684
2020-06-04 21:19:01+00:00,341.0047,8.98,12.89,47.84626,-54.09684
2020-06-04 21:29:01+00:00,344.30300000000005,8.99,12.89,47.84626,-54.09684
2020-06-04 21:39:01+00:00,347.5113,8.99,12.89,47.84626,-54.09684
2020-06-04 21:49:01+00:00,350.3279,8.99,12.89,47.84626,-54.09684
2020-06-04 21:59:01+00:00,358.5262,8.9,12.89,47.84626,-54.09684
2020-06-04 22:09:01+00:00,361.3312,8.9,12.89,47.84626,-54.09684
2020-06-04 22:19:01+00:00,361.1295,8.7,12.73,47.84626,-54.09684
2020-06-04 22:29:01+00:00,366.233,8.7,12.73,47.84626,-54.09684
2020-06-04 22:39:01+00:00,373.1796,8.5,12.73,47.84626,-54.09684
2020-06-04 22:49:01+00:00,372.12800000000004,8.5,12.73,47.84626,-54.09684
2020-06-04 22:59:01+00:00,369.7195,8.5,12.73,47.84626,-54.09684
2020-06-04 23:09:01+00:00,371.7112,8.56,12.73,47.84626,-54.09684
2020-06-04 23:19:01+00:00,371.2979,8.56,12.65,47.84626,-54.09684
2020-06-04 23:29:01+00:00,364.1729,8.54,12.65,47.84626,-54.09684
2020-06-04 23:39:01+00:00,362.1496,8.58,12.65,47.84626,-54.09684
2020-06-04 23:49:01+00:00,359.968,8.6,12.65,47.84626,-54.09684
2020-06-04 23:59:01+00:00,355.0246,8.6,12.65,47.84626,-54.09684
